This is the latest recevied weather packets stored in our database for station/object NC4M. If no packets are shown the sender has not sent any weather packets the latest 10 day(s).
| Time | Temp. | Humidity | Pressure | Rain* | Wind** | Luminosity | Snow |
|---|---|---|---|---|---|---|---|
| 1777911748 | 26.67° C | 41% | 1007 hPa | 0 mm | - | 816 W/m² | - |
| 1777911445 | 26.11° C | 43% | 1006.7 hPa | 0 mm | - | 805 W/m² | - |
| 1777911142 | 25.56° C | 45% | 1006.8 hPa | 0 mm | - | 796 W/m² | - |
| 1777910840 | 25.56° C | 43% | 1006.7 hPa | 0 mm | - | 786 W/m² | - |
| 1777910536 | 25° C | 45% | 1006.8 hPa | 0 mm | - | 778 W/m² | - |
| 1777910233 | 25° C | 43% | 1006.6 hPa | 0 mm | - | 765 W/m² | - |
| 1777909930 | 25° C | 42% | 1006.8 hPa | 0 mm | - | 753 W/m² | - |
| 1777909627 | 24.44° C | 43% | 1006.6 hPa | 0 mm | - | 742 W/m² | - |
| 1777909324 | 23.89° C | 45% | 1006.9 hPa | 0 mm | - | 178 W/m² | - |
| 1777909022 | 23.89° C | 45% | 1007.1 hPa | 0 mm | - | 69 W/m² | - |
| 1777908719 | 23.33° C | 49% | 1007.1 hPa | 0 mm | - | 390 W/m² | - |
| 1777908416 | 23.33° C | 45% | 1007.1 hPa | 0 mm | - | 135 W/m² | - |
| 1777908113 | 23.33° C | 47% | 1007.1 hPa | 0 mm | - | 222 W/m² | - |
| 1777907809 | 22.78° C | 48% | 1006.9 hPa | 0 mm | - | 418 W/m² | - |
| 1777907504 | 22.78° C | 46% | 1007.1 hPa | 0 mm | - | 141 W/m² | - |
| 1777907201 | 22.78° C | 50% | 1007.3 hPa | 0 mm | - | 72 W/m² | - |
| 1777906898 | 22.22° C | 48% | 1007.4 hPa | 0 mm | - | 86 W/m² | - |
| 1777906596 | 21.67° C | 50% | 1007.2 hPa | 0 mm | - | 298 W/m² | - |
| 1777906291 | 21.67° C | 50% | 1007.3 hPa | 0 mm | - | 82 W/m² | - |
| 1777905988 | 21.67° C | 54% | 1007.7 hPa | 0 mm | - | 136 W/m² | - |
| 1777905685 | 21.11° C | 56% | 1007.8 hPa | 0 mm | - | 84 W/m² | - |
| 1777905381 | 21.11° C | 50% | 1007.7 hPa | 0 mm | - | 84 W/m² | - |
| 1777905079 | 20.56° C | 57% | 1007.5 hPa | 0 mm | - | 82 W/m² | - |
| 1777904776 | 20.56° C | 58% | 1007.7 hPa | 0 mm | - | 81 W/m² | - |
| 1777904473 | 20.56° C | 55% | 1007.8 hPa | 0 mm | - | 92 W/m² | - |
* Rain latest hour (hover to see other rain measurements)
** Current wind speed in m/s (hover to see current wind gust speed)